SKW5446 KSFO-KSBP

Flight info

Callsign SKW5446
Flight time 0h 35m
Altitude 23000
Route WESLA5 YYUNG MQO
Aircraft CRJ7/M-SDFGIRWY/S

Departure

Time 2026-05-06 02:41
Airport San Francisco International Airport (KSFO)

Arrival

Time 2026-05-06 03:17
Airport San Luis County Regional Airport (KSBP)
Time Latitude Longitude Altitude Speed Heading
2026-05-06 02:15 37.62052 -122.38644 20 ft 0 kts 297°
2026-05-06 02:31 37.62045 -122.38628 20 ft 4 kts 301°
2026-05-06 02:31 37.62028 -122.38603 20 ft 4 kts 329°
2026-05-06 02:31 37.62013 -122.38598 20 ft 1 kts 353°
2026-05-06 02:34 37.62015 -122.38598 20 ft 1 kts 354°
2026-05-06 02:35 37.62019 -122.38597 22 ft 1 kts 17°
2026-05-06 02:35 37.62032 -122.38588 20 ft 4 kts 28°
2026-05-06 02:35 37.62065 -122.38566 21 ft 7 kts 30°
2026-05-06 02:35 37.62090 -122.38504 20 ft 9 kts 101°
2026-05-06 02:36 37.62069 -122.38450 20 ft 11 kts 118°
2026-05-06 02:36 37.62027 -122.38350 20 ft 14 kts 117°
2026-05-06 02:36 37.61977 -122.38230 20 ft 16 kts 118°
2026-05-06 02:36 37.61904 -122.38058 22 ft 18 kts 117°
2026-05-06 02:37 37.61865 -122.37964 21 ft 18 kts 118°
2026-05-06 02:37 37.61796 -122.37761 20 ft 20 kts 111°
2026-05-06 02:37 37.61762 -122.37650 21 ft 20 kts 111°
2026-05-06 02:37 37.61706 -122.37482 22 ft 21 kts 116°
2026-05-06 02:38 37.61612 -122.37256 22 ft 23 kts 118°
2026-05-06 02:38 37.61562 -122.37137 23 ft 23 kts 117°
2026-05-06 02:38 37.61484 -122.36956 22 ft 24 kts 122°
2026-05-06 02:38 37.61376 -122.36796 21 ft 24 kts 127°
2026-05-06 02:39 37.61293 -122.36607 20 ft 25 kts 118°
2026-05-06 02:39 37.61217 -122.36428 21 ft 23 kts 118°
2026-05-06 02:39 37.61141 -122.36247 20 ft 24 kts 118°
2026-05-06 02:39 37.61065 -122.36068 20 ft 22 kts 118°
2026-05-06 02:40 37.61102 -122.35901 20 ft 22 kts 29°
2026-05-06 02:40 37.61187 -122.35878 20 ft 10 kts 300°
2026-05-06 02:40 37.61306 -122.36162 22 ft 72 kts 298°
2026-05-06 02:40 37.61651 -122.36988 21 ft 139 kts 298°
2026-05-06 02:41 37.62157 -122.38151 535 ft 158 kts 299°
2026-05-06 02:41 37.62646 -122.39371 1232 ft 159 kts 295°
2026-05-06 02:41 37.63157 -122.40700 1672 ft 176 kts 295°
2026-05-06 02:41 37.63710 -122.42136 2189 ft 187 kts 295°
2026-05-06 02:42 37.64290 -122.43645 2752 ft 197 kts 295°
2026-05-06 02:42 37.64927 -122.45286 3195 ft 216 kts 296°
2026-05-06 02:42 37.65606 -122.47033 3887 ft 230 kts 296°
2026-05-06 02:42 37.66336 -122.48909 4531 ft 246 kts 296°
2026-05-06 02:43 37.67016 -122.50930 5274 ft 255 kts 284°
2026-05-06 02:43 37.67078 -122.53189 6021 ft 263 kts 258°
2026-05-06 02:43 37.66394 -122.55324 6925 ft 264 kts 243°
2026-05-06 02:43 37.65571 -122.57417 7680 ft 269 kts 245°
2026-05-06 02:44 37.64769 -122.59601 8316 ft 282 kts 246°
2026-05-06 02:44 37.63947 -122.61890 9023 ft 289 kts 246°
2026-05-06 02:44 37.63166 -122.64256 9803 ft 295 kts 247°
2026-05-06 02:44 37.61903 -122.66314 10501 ft 305 kts 217°
2026-05-06 02:45 37.59926 -122.67319 11168 ft 312 kts 185°
2026-05-06 02:45 37.57763 -122.67077 11842 ft 317 kts 165°
2026-05-06 02:45 37.55602 -122.66403 12493 ft 323 kts 163°
2026-05-06 02:45 37.53402 -122.65735 13135 ft 331 kts 165°
2026-05-06 02:46 37.51082 -122.65136 13443 ft 351 kts 167°
2026-05-06 02:46 37.48601 -122.64658 13746 ft 370 kts 170°
2026-05-06 02:46 37.45993 -122.64234 14086 ft 386 kts 171°
2026-05-06 02:46 37.43287 -122.63785 14481 ft 399 kts 170°
2026-05-06 02:47 37.40495 -122.63302 14911 ft 410 kts 170°
2026-05-06 02:47 37.37654 -122.62736 15397 ft 416 kts 163°
2026-05-06 02:47 37.34984 -122.61322 15733 ft 420 kts 144°
2026-05-06 02:47 37.32619 -122.59142 16173 ft 423 kts 138°
2026-05-06 02:48 37.30315 -122.56832 16834 ft 423 kts 137°
2026-05-06 02:48 37.28009 -122.54575 17703 ft 417 kts 139°
2026-05-06 02:48 37.25655 -122.52395 18049 ft 428 kts 140°
2026-05-06 02:48 37.23193 -122.50176 18169 ft 441 kts 140°
2026-05-06 02:49 37.20684 -122.47899 18500 ft 448 kts 140°
2026-05-06 02:49 37.18153 -122.45603 18999 ft 450 kts 140°
2026-05-06 02:49 37.15618 -122.43307 19639 ft 447 kts 140°
2026-05-06 02:49 37.13114 -122.41036 20404 ft 441 kts 140°
2026-05-06 02:50 37.10653 -122.38806 21278 ft 432 kts 139°
2026-05-06 02:50 37.08234 -122.36615 21933 ft 428 kts 139°
2026-05-06 02:50 37.05808 -122.34415 22200 ft 435 kts 139°
2026-05-06 02:50 37.03318 -122.32165 22196 ft 448 kts 139°
2026-05-06 02:51 37.00754 -122.29854 22192 ft 460 kts 140°
2026-05-06 02:51 36.98127 -122.27486 22204 ft 471 kts 140°
2026-05-06 02:51 36.95450 -122.25073 22357 ft 476 kts 140°
2026-05-06 02:51 36.92766 -122.22666 22682 ft 472 kts 140°
2026-05-06 02:52 36.90113 -122.20271 22907 ft 471 kts 139°
2026-05-06 02:52 36.87446 -122.17869 23010 ft 473 kts 140°
2026-05-06 02:52 36.84763 -122.15463 23055 ft 477 kts 140°
2026-05-06 02:52 36.83045 -122.13919 23071 ft 478 kts 140°
2026-05-06 02:53 36.80342 -122.11499 23082 ft 478 kts 140°
2026-05-06 02:53 36.77671 -122.09103 23087 ft 479 kts 140°
2026-05-06 02:53 36.75065 -122.06775 23089 ft 479 kts 140°
2026-05-06 02:53 36.72429 -122.04412 23094 ft 479 kts 140°
2026-05-06 02:54 36.69781 -122.02051 23098 ft 480 kts 140°
2026-05-06 02:54 36.67125 -121.99675 23099 ft 481 kts 140°
2026-05-06 02:54 36.64466 -121.97306 23100 ft 481 kts 140°
2026-05-06 02:54 36.61770 -121.94900 23101 ft 481 kts 140°
2026-05-06 02:55 36.59043 -121.92477 23102 ft 482 kts 140°
2026-05-06 02:55 36.56317 -121.90044 23102 ft 482 kts 140°
2026-05-06 02:55 36.53584 -121.87627 23098 ft 482 kts 140°
2026-05-06 02:55 36.50853 -121.85200 23100 ft 482 kts 140°
2026-05-06 02:56 36.48124 -121.82770 23113 ft 483 kts 140°
2026-05-06 02:56 36.45383 -121.80348 23094 ft 483 kts 140°
2026-05-06 02:56 36.42653 -121.77924 23105 ft 483 kts 140°
2026-05-06 02:56 36.39912 -121.75498 23111 ft 484 kts 140°
2026-05-06 02:57 36.37170 -121.73071 23110 ft 484 kts 140°
2026-05-06 02:57 36.34426 -121.70646 23126 ft 485 kts 140°
2026-05-06 02:57 36.31711 -121.68260 23099 ft 485 kts 140°
2026-05-06 02:57 36.28962 -121.65828 23104 ft 485 kts 140°
2026-05-06 02:58 36.26214 -121.63410 23094 ft 484 kts 140°
2026-05-06 02:58 36.23465 -121.61003 23064 ft 482 kts 140°
2026-05-06 02:58 36.20745 -121.58599 23024 ft 480 kts 140°
2026-05-06 02:58 36.18011 -121.56248 23038 ft 478 kts 141°
2026-05-06 02:59 36.15288 -121.53908 23069 ft 476 kts 140°
2026-05-06 02:59 36.12587 -121.51543 23082 ft 475 kts 140°
2026-05-06 02:59 36.09894 -121.49186 23095 ft 474 kts 140°
2026-05-06 02:59 36.07204 -121.46836 23084 ft 473 kts 140°
2026-05-06 03:00 36.04519 -121.44490 23086 ft 473 kts 140°
2026-05-06 03:00 36.01840 -121.42133 23077 ft 473 kts 140°
2026-05-06 03:00 35.99154 -121.39795 23091 ft 472 kts 140°
2026-05-06 03:00 35.96470 -121.37449 23084 ft 472 kts 140°
2026-05-06 03:01 35.93804 -121.35080 23092 ft 472 kts 140°
2026-05-06 03:01 35.91132 -121.32733 23080 ft 472 kts 140°
2026-05-06 03:01 35.88446 -121.30395 23084 ft 472 kts 141°
2026-05-06 03:01 35.85760 -121.28066 23088 ft 472 kts 141°
2026-05-06 03:02 35.83075 -121.25738 23083 ft 472 kts 141°
2026-05-06 03:02 35.80396 -121.23410 23079 ft 471 kts 140°
2026-05-06 03:02 35.77715 -121.21079 23079 ft 471 kts 141°
2026-05-06 03:02 35.75030 -121.18757 23065 ft 471 kts 141°
2026-05-06 03:03 35.72352 -121.16443 23058 ft 471 kts 140°
2026-05-06 03:03 35.69682 -121.14124 23076 ft 470 kts 140°
2026-05-06 03:03 35.67005 -121.11812 23072 ft 470 kts 141°
2026-05-06 03:03 35.64327 -121.09496 23066 ft 470 kts 141°
2026-05-06 03:04 35.61650 -121.07188 23065 ft 469 kts 141°
2026-05-06 03:04 35.58975 -121.04879 22902 ft 473 kts 141°
2026-05-06 03:04 35.56266 -121.02541 22497 ft 473 kts 141°
2026-05-06 03:04 35.53593 -121.00242 21420 ft 467 kts 141°
2026-05-06 03:05 35.50951 -120.97971 20352 ft 461 kts 141°
2026-05-06 03:05 35.48337 -120.95723 19296 ft 457 kts 141°
2026-05-06 03:05 35.45748 -120.93500 18249 ft 452 kts 142°
2026-05-06 03:05 35.43210 -120.91323 17212 ft 436 kts 142°
2026-05-06 03:06 35.40802 -120.89260 16227 ft 419 kts 142°
2026-05-06 03:06 35.38452 -120.87252 15263 ft 405 kts 142°
2026-05-06 03:06 35.36185 -120.85312 14329 ft 392 kts 142°
2026-05-06 03:06 35.33984 -120.83426 13427 ft 380 kts 142°
2026-05-06 03:07 35.31847 -120.81594 12556 ft 370 kts 143°
2026-05-06 03:07 35.29764 -120.79812 11703 ft 361 kts 143°
2026-05-06 03:07 35.27733 -120.78077 10887 ft 352 kts 143°
2026-05-06 03:07 35.25749 -120.76381 10084 ft 344 kts 143°
2026-05-06 03:08 35.23824 -120.74707 9330 ft 336 kts 143°
2026-05-06 03:08 35.21950 -120.73048 8517 ft 328 kts 143°
2026-05-06 03:08 35.20131 -120.71408 7717 ft 322 kts 143°
2026-05-06 03:08 35.18326 -120.69775 6897 ft 316 kts 143°
2026-05-06 03:09 35.16579 -120.68188 6098 ft 310 kts 143°
2026-05-06 03:09 35.14869 -120.66624 5291 ft 304 kts 143°
2026-05-06 03:09 35.13197 -120.65082 4487 ft 299 kts 143°
2026-05-06 03:09 35.11571 -120.63575 3693 ft 296 kts 143°
2026-05-06 03:10 35.09984 -120.62139 3663 ft 267 kts 146°
2026-05-06 03:10 35.08438 -120.60834 3367 ft 270 kts 144°
2026-05-06 03:10 35.06968 -120.59505 3567 ft 256 kts 143°
2026-05-06 03:10 35.05595 -120.58229 3813 ft 249 kts 143°
2026-05-06 03:11 35.04224 -120.56942 3922 ft 249 kts 143°
2026-05-06 03:11 35.02876 -120.55646 3963 ft 245 kts 136°
2026-05-06 03:11 35.02085 -120.53874 3981 ft 239 kts 96°
2026-05-06 03:11 35.02355 -120.51955 4012 ft 229 kts 57°
2026-05-06 03:12 35.03513 -120.50725 4031 ft 222 kts 17°
2026-05-06 03:12 35.05009 -120.50717 4049 ft 218 kts 339°
2026-05-06 03:12 35.06415 -120.51434 4038 ft 220 kts 335°
2026-05-06 03:12 35.07808 -120.52223 4035 ft 222 kts 333°
2026-05-06 03:13 35.09199 -120.53053 4029 ft 223 kts 333°
2026-05-06 03:13 35.10595 -120.53916 4007 ft 228 kts 332°
2026-05-06 03:13 35.11996 -120.54806 3916 ft 220 kts 332°
2026-05-06 03:13 35.13302 -120.55626 3871 ft 201 kts 332°
2026-05-06 03:14 35.14538 -120.56371 3559 ft 201 kts 338°
2026-05-06 03:14 35.15850 -120.57015 3151 ft 204 kts 337°
2026-05-06 03:14 35.17177 -120.57674 2643 ft 207 kts 338°
2026-05-06 03:14 35.18538 -120.58262 2147 ft 205 kts 344°
2026-05-06 03:15 35.19861 -120.58758 1768 ft 192 kts 333°
2026-05-06 03:15 35.20911 -120.59552 1370 ft 162 kts 321°
2026-05-06 03:15 35.21620 -120.60472 953 ft 135 kts 307°
2026-05-06 03:15 35.22150 -120.61333 639 ft 122 kts 306°
2026-05-06 03:16 35.22620 -120.62162 400 ft 115 kts 305°
2026-05-06 03:16 35.23084 -120.62976 266 ft 120 kts 306°
2026-05-06 03:16 35.23575 -120.63829 198 ft 118 kts 306°
2026-05-06 03:16 35.23947 -120.64479 183 ft 68 kts 305°
2026-05-06 03:17 35.24122 -120.64785 184 ft 25 kts 304°
2026-05-06 03:17 35.24183 -120.64893 185 ft 10 kts 306°
2026-05-06 03:17 35.24239 -120.64924 195 ft 9 kts 17°
2026-05-06 03:17 35.24267 -120.64857 182 ft 11 kts 107°
2026-05-06 03:18 35.24225 -120.64774 182 ft 12 kts 124°
2026-05-06 03:18 35.24173 -120.64684 182 ft 14 kts 126°
2026-05-06 03:18 35.24114 -120.64582 182 ft 16 kts 125°
2026-05-06 03:18 35.24050 -120.64469 182 ft 17 kts 124°
2026-05-06 03:19 35.23981 -120.64347 182 ft 18 kts 124°
2026-05-06 03:19 35.23899 -120.64222 182 ft 19 kts 130°
2026-05-06 03:19 35.23822 -120.64083 183 ft 20 kts 122°
2026-05-06 03:19 35.23767 -120.63970 182 ft 10 kts 122°
2026-05-06 03:20 35.23794 -120.63896 182 ft 5 kts
2026-05-06 03:20 35.23817 -120.63881 182 ft 3 kts 70°
2026-05-06 03:20 35.23817 -120.63864 182 ft 3 kts 100°
2026-05-06 03:21 35.23816 -120.63842 182 ft 0 kts 90°